DLH2406 EDDN-EDDF

Flight info

Callsign DLH2406
Flight time 0h 29m
Altitude 20000
Route SUKAD1G/28 SUKAD DCT PIWAW T159 SPESA SPESA5C
Aircraft E195/M-SDE2E3FGIJ1RWY/LB1

Departure

Time 2026-04-15 07:32
Airport Nuremberg Airport (EDDN)

Arrival

Time 2026-04-15 08:02
Airport Frankfurt Main Airport (EDDF)
Time Latitude Longitude Altitude Speed Heading
2026-04-15 07:14 49.49542 11.07517 1025 ft 0 kts 189°
2026-04-15 07:23 49.49561 11.07521 1024 ft 4 kts 189°
2026-04-15 07:23 49.49587 11.07527 1024 ft 4 kts 172°
2026-04-15 07:23 49.49607 11.07511 1022 ft 4 kts 116°
2026-04-15 07:23 49.49613 11.07488 1024 ft 1 kts 98°
2026-04-15 07:28 49.49606 11.07561 1024 ft 15 kts 98°
2026-04-15 07:29 49.49586 11.07766 1023 ft 21 kts 99°
2026-04-15 07:29 49.49563 11.08000 1026 ft 24 kts 98°
2026-04-15 07:29 49.49537 11.08260 1027 ft 23 kts 97°
2026-04-15 07:29 49.49611 11.08405 1032 ft 16 kts 73°
2026-04-15 07:30 49.49605 11.08533 1034 ft 20 kts 98°
2026-04-15 07:30 49.49573 11.08863 1036 ft 24 kts 98°
2026-04-15 07:30 49.49548 11.09118 1040 ft 24 kts 98°
2026-04-15 07:30 49.49537 11.09360 1044 ft 21 kts 69°
2026-04-15 07:31 49.49616 11.09531 1049 ft 19 kts 46°
2026-04-15 07:31 49.49703 11.09502 1050 ft 16 kts 274°
2026-04-15 07:31 49.49719 11.09339 1048 ft 43 kts 278°
2026-04-15 07:31 49.49802 11.08499 1035 ft 116 kts 279°
2026-04-15 07:32 49.49948 11.06968 1214 ft 160 kts 280°
2026-04-15 07:32 49.50129 11.05186 1740 ft 166 kts 280°
2026-04-15 07:32 49.50301 11.03413 2272 ft 172 kts 279°
2026-04-15 07:32 49.50484 11.01543 2842 ft 184 kts 279°
2026-04-15 07:33 49.50681 10.99535 3400 ft 197 kts 278°
2026-04-15 07:33 49.50893 10.97348 3965 ft 216 kts 278°
2026-04-15 07:33 49.51128 10.94973 4622 ft 233 kts 278°
2026-04-15 07:33 49.51374 10.92445 5414 ft 243 kts 278°
2026-04-15 07:34 49.51624 10.89846 6251 ft 247 kts 277°
2026-04-15 07:34 49.51878 10.87212 7103 ft 249 kts 277°
2026-04-15 07:34 49.52133 10.84561 7924 ft 250 kts 277°
2026-04-15 07:34 49.52384 10.81935 8747 ft 251 kts 277°
2026-04-15 07:35 49.52641 10.79258 9495 ft 257 kts 277°
2026-04-15 07:35 49.52901 10.76535 10203 ft 252 kts 277°
2026-04-15 07:35 49.53161 10.73796 10747 ft 265 kts 277°
2026-04-15 07:35 49.53437 10.70914 11297 ft 278 kts 278°
2026-04-15 07:36 49.53723 10.67893 11879 ft 291 kts 278°
2026-04-15 07:36 49.54022 10.64740 12506 ft 304 kts 278°
2026-04-15 07:36 49.54327 10.61510 13333 ft 310 kts 278°
2026-04-15 07:36 49.54639 10.58178 14155 ft 318 kts 279°
2026-04-15 07:37 49.54975 10.54778 14959 ft 324 kts 283°
2026-04-15 07:37 49.55824 10.51566 15777 ft 327 kts 304°
2026-04-15 07:37 49.57150 10.48698 16638 ft 331 kts 307°
2026-04-15 07:37 49.58506 10.45788 17446 ft 337 kts 306°
2026-04-15 07:38 49.59876 10.42816 18187 ft 346 kts 306°
2026-04-15 07:38 49.61268 10.39806 18749 ft 353 kts 307°
2026-04-15 07:38 49.62718 10.36671 19305 ft 364 kts 307°
2026-04-15 07:38 49.64205 10.33450 19771 ft 376 kts 307°
2026-04-15 07:39 49.65647 10.30026 20072 ft 386 kts 297°
2026-04-15 07:39 49.66609 10.26164 20284 ft 384 kts 290°
2026-04-15 07:39 49.67445 10.22218 20284 ft 386 kts 290°
2026-04-15 07:39 49.68286 10.18285 20281 ft 386 kts 290°
2026-04-15 07:40 49.69138 10.14346 20284 ft 386 kts 290°
2026-04-15 07:40 49.69993 10.10412 20273 ft 387 kts 290°
2026-04-15 07:40 49.70851 10.06470 20265 ft 387 kts 290°
2026-04-15 07:40 49.71709 10.02526 20262 ft 387 kts 290°
2026-04-15 07:41 49.72563 9.98595 20267 ft 387 kts 290°
2026-04-15 07:41 49.73409 9.94699 20256 ft 386 kts 290°
2026-04-15 07:41 49.74260 9.90768 20250 ft 386 kts 290°
2026-04-15 07:41 49.75111 9.86831 20252 ft 386 kts 290°
2026-04-15 07:42 49.75960 9.82890 20252 ft 386 kts 290°
2026-04-15 07:42 49.76808 9.78950 20248 ft 386 kts 290°
2026-04-15 07:42 49.77655 9.75008 20245 ft 386 kts 290°
2026-04-15 07:42 49.78508 9.71035 19812 ft 390 kts 290°
2026-04-15 07:43 49.79353 9.67068 19300 ft 386 kts 289°
2026-04-15 07:43 49.80187 9.63149 18811 ft 380 kts 289°
2026-04-15 07:43 49.81010 9.59279 18303 ft 376 kts 289°
2026-04-15 07:43 49.81816 9.55493 17779 ft 372 kts 289°
2026-04-15 07:44 49.82623 9.51699 17254 ft 369 kts 289°
2026-04-15 07:44 49.83422 9.47941 16744 ft 365 kts 289°
2026-04-15 07:44 49.84211 9.44223 16237 ft 362 kts 289°
2026-04-15 07:44 49.84996 9.40525 15725 ft 359 kts 289°
2026-04-15 07:45 49.85772 9.36875 15224 ft 355 kts 289°
2026-04-15 07:45 49.86548 9.33268 14730 ft 351 kts 289°
2026-04-15 07:45 49.87287 9.29666 14262 ft 350 kts 286°
2026-04-15 07:45 49.87956 9.26050 13768 ft 348 kts 285°
2026-04-15 07:46 49.88626 9.22451 13247 ft 345 kts 286°
2026-04-15 07:46 49.89296 9.18889 12747 ft 343 kts 286°
2026-04-15 07:46 49.89969 9.15339 12240 ft 342 kts 286°
2026-04-15 07:46 49.90632 9.11833 11762 ft 335 kts 286°
2026-04-15 07:47 49.91283 9.08391 11292 ft 328 kts 286°
2026-04-15 07:47 49.91915 9.05042 10973 ft 318 kts 286°
2026-04-15 07:47 49.92527 9.01801 10695 ft 308 kts 286°
2026-04-15 07:47 49.93117 8.98698 10425 ft 299 kts 286°
2026-04-15 07:48 49.93700 8.95650 10160 ft 291 kts 286°
2026-04-15 07:48 49.94270 8.92667 9882 ft 285 kts 286°
2026-04-15 07:48 49.94827 8.89740 9622 ft 281 kts 286°
2026-04-15 07:48 49.95379 8.86832 9404 ft 280 kts 286°
2026-04-15 07:49 49.95932 8.83912 9227 ft 282 kts 286°
2026-04-15 07:49 49.96486 8.80984 9052 ft 283 kts 286°
2026-04-15 07:49 49.97041 8.78047 8872 ft 282 kts 286°
2026-04-15 07:49 49.97586 8.75161 8694 ft 282 kts 286°
2026-04-15 07:50 49.97951 8.72148 8490 ft 281 kts 271°
2026-04-15 07:50 49.97660 8.69207 8295 ft 279 kts 251°
2026-04-15 07:50 49.96988 8.66385 8132 ft 278 kts 248°
2026-04-15 07:50 49.96287 8.63582 7956 ft 278 kts 249°
2026-04-15 07:51 49.95605 8.60787 7781 ft 277 kts 249°
2026-04-15 07:51 49.94930 8.57989 7598 ft 276 kts 249°
2026-04-15 07:51 49.94262 8.55204 7422 ft 276 kts 249°
2026-04-15 07:51 49.93597 8.52418 7303 ft 272 kts 249°
2026-04-15 07:52 49.92940 8.49664 7320 ft 273 kts 249°
2026-04-15 07:52 49.92283 8.46899 7269 ft 271 kts 249°
2026-04-15 07:52 49.91633 8.44196 7028 ft 264 kts 249°
2026-04-15 07:52 49.90989 8.41544 6729 ft 261 kts 249°
2026-04-15 07:53 49.90350 8.38912 6365 ft 260 kts 249°
2026-04-15 07:53 49.89717 8.36287 6001 ft 260 kts 249°
2026-04-15 07:53 49.89083 8.33663 5665 ft 259 kts 249°
2026-04-15 07:53 49.88458 8.31094 5382 ft 256 kts 248°
2026-04-15 07:54 49.87820 8.28511 5090 ft 256 kts 249°
2026-04-15 07:54 49.87202 8.25945 4871 ft 251 kts 249°
2026-04-15 07:54 49.86592 8.23436 4692 ft 247 kts 249°
2026-04-15 07:54 49.86023 8.20955 4495 ft 242 kts 257°
2026-04-15 07:55 49.86069 8.18389 4278 ft 237 kts 290°
2026-04-15 07:55 49.86982 8.16329 4107 ft 235 kts 324°
2026-04-15 07:55 49.89978 8.15959 4105 ft 225 kts 31°
2026-04-15 07:56 49.91321 8.17244 4073 ft 232 kts 34°
2026-04-15 07:56 49.92679 8.18553 4103 ft 227 kts 37°
2026-04-15 07:56 49.93879 8.20078 4154 ft 225 kts 44°
2026-04-15 07:56 49.95012 8.21670 4144 ft 213 kts 47°
2026-04-15 07:57 49.95682 8.23630 4041 ft 203 kts 75°
2026-04-15 07:57 49.96042 8.25702 3987 ft 193 kts 71°
2026-04-15 07:57 49.96545 8.27580 3932 ft 190 kts 67°
2026-04-15 07:57 49.97038 8.29545 3603 ft 196 kts 71°
2026-04-15 07:58 49.97496 8.31553 3375 ft 197 kts 71°
2026-04-15 07:58 49.97976 8.33521 3100 ft 194 kts 70°
2026-04-15 07:58 49.98456 8.35467 2825 ft 192 kts 71°
2026-04-15 07:58 49.98905 8.37373 2556 ft 183 kts 71°
2026-04-15 07:59 49.99348 8.39187 2315 ft 177 kts 71°
2026-04-15 07:59 49.99776 8.40967 2050 ft 174 kts 71°
2026-04-15 07:59 50.00187 8.42690 1836 ft 172 kts 71°
2026-04-15 07:59 50.00596 8.44403 1602 ft 169 kts 70°
2026-04-15 08:00 50.01003 8.46092 1377 ft 163 kts 71°
2026-04-15 08:00 50.01385 8.47681 1153 ft 150 kts 69°
2026-04-15 08:00 50.01740 8.49151 927 ft 141 kts 68°
2026-04-15 08:00 50.02068 8.50551 759 ft 137 kts 68°
2026-04-15 08:01 50.02411 8.51974 556 ft 141 kts 66°
2026-04-15 08:01 50.02742 8.53361 381 ft 142 kts 68°
2026-04-15 08:01 50.03074 8.54751 335 ft 120 kts 70°
2026-04-15 08:01 50.03304 8.55715 347 ft 73 kts 70°
2026-04-15 08:02 50.03459 8.56244 351 ft 46 kts 51°
2026-04-15 08:02 50.03642 8.56506 357 ft 27 kts 40°
2026-04-15 08:02 50.03709 8.56593 350 ft 0 kts 39°
2026-04-15 08:03 50.03711 8.56594 350 ft 2 kts 39°
2026-04-15 08:04 50.03768 8.56679 354 ft 21 kts 52°
2026-04-15 08:04 50.03845 8.56953 355 ft 31 kts 70°
2026-04-15 08:04 50.03919 8.57261 360 ft 29 kts 69°
2026-04-15 08:04 50.03991 8.57564 364 ft 31 kts 71°
2026-04-15 08:05 50.04070 8.57892 368 ft 34 kts 69°
2026-04-15 08:05 50.04151 8.58231 367 ft 33 kts 69°
2026-04-15 08:05 50.04233 8.58570 370 ft 33 kts 69°
2026-04-15 08:05 50.04313 8.58902 373 ft 32 kts 69°
2026-04-15 08:06 50.04389 8.59217 375 ft 32 kts 70°
2026-04-15 08:06 50.04498 8.59471 373 ft 28 kts
2026-04-15 08:06 50.04693 8.59444 371 ft 29 kts 346°
2026-04-15 08:06 50.04841 8.59281 367 ft 26 kts 275°
2026-04-15 08:07 50.04800 8.59059 370 ft 18 kts 261°
2026-04-15 08:07 50.04853 8.58986 365 ft 8 kts 339°
2026-04-15 08:07 50.04872 8.58975 365 ft 0 kts 339°